Project,Study,Ord_Occ,Event_Num,Date_Time_UTC,Date_Time_PST,Lat_Dec,Lon_Dec,Sta_ID,Line,Sta,Depth,Pressure,Temp0,Temp1,Salt0,CorrSalt0,Salt1,CorrSalt1,O2ml/L,AveCorrO2ml/L,StaCorrO2ml/L,FluorV,AveEstChl,StaEstChl,ISUSV,AveEstNO3,StaEstNO3,SigThetaTS0,SigThetaTS1,BAT,XMiss,SPAR,PAR,BTL_Depth,BTL_Temp,BTL_Salt,BTL_O2ml/L,BTL_Chl,BTL_Pha,BTL_NO3
CalCOFI,0701JD,062,612,27-Jan-2007 10:49:11 PM,27-Jan-2007 2:49:11 PM,33.81732,-121.84184,080.0 070.0,080.0,070.0,514.000,518.334,5.5911,5.5880,34.1721,34.1708,34.1682,34.1683,0.57947,0.67,0.70,0.0243,,,1.7925,42.13,40.703,26.9543,26.9516,0.3982,90.5246,6.3030e+00,9.9990e+03,515,5.54 ,34.167,  .61,,,40.8
CalCOFI,0701JD,062,612,27-Jan-2007 10:49:26 PM,27-Jan-2007 2:49:26 PM,33.81732,-121.84182,080.0 070.0,080.0,070.0,513.000,517.324,5.6444,5.6451,34.1778,34.1765,34.1701,34.1702,0.57800,0.67,0.70,0.0247,,,1.7887,42.02,40.586,26.9524,26.9462,0.3980,90.5286,6.5282e+00,9.9990e+03,,,,,,,
CalCOFI,0701JD,062,612,27-Jan-2007 10:50:49 PM,27-Jan-2007 2:50:49 PM,33.81732,-121.84168,080.0 070.0,080.0,070.0,512.000,516.314,5.5460,5.5468,34.1718,34.1705,34.1677,34.1678,0.56975,0.66,0.69,0.0240,,,1.7664,41.36,39.901,26.9595,26.9562,0.3980,90.5273,6.3396e+00,9.9990e+03,,,,,,,
CalCOFI,0701JD,062,612,27-Jan-2007 10:50:52 PM,27-Jan-2007 2:50:52 PM,33.81732,-121.84168,080.0 070.0,080.0,070.0,511.000,515.305,5.5728,5.5732,34.1742,34.1729,34.1704,34.1705,0.56665,0.66,0.68,0.0244,,,1.7978,42.28,40.866,26.9582,26.9552,0.3981,90.5248,6.3168e+00,9.9990e+03,,,,,,,
CalCOFI,0701JD,062,612,27-Jan-2007 10:50:53 PM,27-Jan-2007 2:50:53 PM,33.81732,-9.990e-29,080.0 070.0,080.0,070.0,510.000,514.295,5.5779,5.5785,34.1723,34.1710,34.1695,34.1696,0.56564,0.66,0.68,0.0243,,,1.7631,41.26,39.800,26.9561,26.9538,0.3978,90.5325,6.2222e+00,9.9990e+03,,,,,,,
CalCOFI,0701JD,062,612,27-Jan-2007 10:50:54 PM,27-Jan-2007 2:50:54 PM,33.81732,-9.990e-29,080.0 070.0,080.0,070.0,509.000,513.285,5.5803,5.5808,34.1709,34.1696,34.1679,34.1680,0.56622,0.66,0.68,0.0243,,,1.7717,41.52,40.064,26.9546,26.9522,0.3979,90.5296,6.0669e+00,9.9990e+03,,,,,,,
CalCOFI,0701JD,062,612,27-Jan-2007 10:50:56 PM,27-Jan-2007 2:50:56 PM,33.81732,-121.84150,080.0 070.0,080.0,070.0,508.000,512.276,5.5869,5.5877,34.1700,34.1687,34.1671,34.1672,0.56556,0.66,0.68,0.0241,,,1.7754,41.62,40.178,26.9531,26.9507,0.3979,90.5309,5.9475e+00,9.9990e+03,,,,,,,
CalCOFI,0701JD,062,612,27-Jan-2007 10:50:58 PM,27-Jan-2007 2:50:58 PM,33.81732,-121.84150,080.0 070.0,080.0,070.0,507.000,511.266,5.5849,5.5867,34.1703,34.1690,34.1672,34.1673,0.56525,0.65,0.68,0.0239,,,1.7789,41.73,40.285,26.9536,26.9509,0.3979,90.5300,5.9728e+00,9.9990e+03,,,,,,,
CalCOFI,0701JD,062,612,27-Jan-2007 10:50:59 PM,27-Jan-2007 2:50:59 PM,33.81732,-121.84150,080.0 070.0,080.0,070.0,506.000,510.256,5.6294,5.6284,34.1765,34.1752,34.1701,34.1702,0.56020,0.65,0.67,0.0238,,,1.7797,41.75,40.310,26.9531,26.9482,0.3977,90.5343,6.0962e+00,9.9990e+03,,,,,,,
CalCOFI,0701JD,062,612,27-Jan-2007 10:51:00 PM,27-Jan-2007 2:51:00 PM,33.81732,-121.84150,080.0 070.0,080.0,070.0,505.000,509.247,5.7040,5.7074,34.1830,34.1817,34.1789,34.1790,0.55772,0.65,0.67,0.0247,,,1.7591,41.15,39.677,26.9492,26.9455,0.3982,90.5242,6.0624e+00,9.9990e+03,,,,,,,
CalCOFI,0701JD,062,612,27-Jan-2007 10:51:01 PM,27-Jan-2007 2:51:01 PM,33.81732,-121.84150,080.0 070.0,080.0,070.0,504.000,508.237,5.7331,5.7343,34.1874,34.1861,34.1834,34.1835,0.55797,0.65,0.67,0.0239,,,1.7729,41.55,40.101,26.9492,26.9458,0.3986,90.5133,6.1860e+00,9.9990e+03,,,,,,,
CalCOFI,0701JD,062,612,27-Jan-2007 10:51:01 PM,27-Jan-2007 2:51:01 PM,33.81732,-121.84150,080.0 070.0,080.0,070.0,503.000,507.228,5.7539,5.7548,34.1870,34.1857,34.1848,34.1849,0.55945,0.65,0.67,0.0248,,,1.7895,42.04,40.611,26.9462,26.9444,0.3987,90.5120,6.4288e+00,9.9990e+03,,,,,,,
CalCOFI,0701JD,062,612,27-Jan-2007 10:51:02 PM,27-Jan-2007 2:51:02 PM,33.81732,-121.84150,080.0 070.0,080.0,070.0,502.000,506.218,5.7365,5.7374,34.1801,34.1788,34.1784,34.1785,0.56126,0.65,0.67,0.0244,,,1.8105,42.66,41.256,26.9429,26.9415,0.3987,90.5112,6.1616e+00,9.9990e+03,,,,,,,
CalCOFI,0701JD,062,612,27-Jan-2007 10:51:03 PM,27-Jan-2007 2:51:03 PM,33.81732,-121.84150,080.0 070.0,080.0,070.0,501.000,505.208,5.7417,5.7425,34.1810,34.1797,34.1775,34.1776,0.56495,0.65,0.68,0.0243,,,1.8040,42.46,41.056,26.9429,26.9401,0.3985,90.5165,6.2418e+00,9.9990e+03,,,,,,,
CalCOFI,0701JD,062,612,27-Jan-2007 10:51:04 PM,27-Jan-2007 2:51:04 PM,33.81732,-121.84150,080.0 070.0,080.0,070.0,500.000,504.199,5.7512,5.7512,34.1802,34.1789,34.1780,34.1781,0.57318,0.66,0.69,0.0240,,,1.7624,41.24,39.779,26.9412,26.9394,0.3988,90.5094,6.5317e+00,9.9990e+03,,,,,,,
CalCOFI,0701JD,062,612,27-Jan-2007 10:51:05 PM,27-Jan-2007 2:51:05 PM,33.81732,-121.84150,080.0 070.0,080.0,070.0,499.000,503.189,5.7230,5.7275,34.1713,34.1700,34.1722,34.1723,0.58645,0.68,0.71,0.0240,,,1.8023,42.41,41.004,26.9376,26.9377,0.3987,90.5111,6.4379e+00,9.9990e+03,,,,,,,
CalCOFI,0701JD,062,612,27-Jan-2007 10:51:06 PM,27-Jan-2007 2:51:06 PM,33.81732,-121.84150,080.0 070.0,080.0,070.0,498.000,502.179,5.7007,5.7019,34.1647,34.1634,34.1648,34.1649,0.59936,0.70,0.72,0.0242,,,1.8084,42.59,41.191,26.9351,26.9350,0.3982,90.5239,6.4789e+00,9.9990e+03,,,,,,,
CalCOFI,0701JD,062,612,27-Jan-2007 10:51:06 PM,27-Jan-2007 2:51:06 PM,33.81732,-121.84150,080.0 070.0,080.0,070.0,497.000,501.170,5.6404,5.6427,34.1492,34.1479,34.1510,34.1511,0.60963,0.71,0.73,0.0245,,,1.7974,42.27,40.853,26.9301,26.9312,0.3980,90.5282,6.2985e+00,9.9990e+03,,,,,,,
CalCOFI,0701JD,062,612,27-Jan-2007 10:51:07 PM,27-Jan-2007 2:51:07 PM,33.81732,-121.84150,080.0 070.0,080.0,070.0,496.000,500.160,5.5923,5.5938,34.1417,34.1404,34.1405,34.1406,0.61946,0.72,0.75,0.0240,,,1.8026,42.42,41.013,26.9299,26.9288,0.3983,90.5224,6.1279e+00,9.9990e+03,,,,,,,
CalCOFI,0701JD,062,612,27-Jan-2007 10:51:09 PM,27-Jan-2007 2:51:09 PM,33.81732,-121.84150,080.0 070.0,080.0,070.0,495.000,499.151,5.6198,5.6291,34.1467,34.1454,34.1495,34.1496,0.63823,0.74,0.77,0.0245,,,1.7618,41.23,39.760,26.9306,26.9316,0.3980,90.5276,6.2364e+00,9.9990e+03,,,,,,,
CalCOFI,0701JD,062,612,27-Jan-2007 10:51:10 PM,27-Jan-2007 2:51:10 PM,33.81732,-121.84150,080.0 070.0,080.0,070.0,494.000,498.141,5.5840,5.5821,34.1399,34.1386,34.1365,34.1366,0.65367,0.76,0.79,0.0239,,,1.7736,41.57,40.123,26.9295,26.9271,0.3982,90.5246,5.8954e+00,9.9990e+03,,,,,,,
CalCOFI,0701JD,062,612,27-Jan-2007 10:51:11 PM,27-Jan-2007 2:51:11 PM,33.81732,-121.84150,080.0 070.0,080.0,070.0,493.000,497.131,5.5697,5.5702,34.1357,34.1344,34.1332,34.1333,0.66012,0.77,0.80,0.0240,,,1.7951,42.20,40.783,26.9279,26.9258,0.3979,90.5322,6.1823e+00,9.9990e+03,,,,,,,
CalCOFI,0701JD,062,612,27-Jan-2007 10:51:12 PM,27-Jan-2007 2:51:12 PM,33.81732,-121.84150,080.0 070.0,080.0,070.0,492.000,496.122,5.5832,5.5844,34.1372,34.1359,34.1336,34.1337,0.66340,0.77,0.80,0.0242,,,1.7889,42.02,40.592,26.9274,26.9245,0.3974,90.5417,6.3357e+00,9.9990e+03,,,,,,,
CalCOFI,0701JD,062,612,27-Jan-2007 10:51:13 PM,27-Jan-2007 2:51:13 PM,33.81732,-121.84150,080.0 070.0,080.0,070.0,491.000,495.112,5.6141,5.6148,34.1409,34.1396,34.1360,34.1361,0.66403,0.78,0.80,0.0241,,,1.7683,41.42,39.960,26.9266,26.9227,0.3979,90.5307,6.2636e+00,9.9990e+03,,,,,,,
CalCOFI,0701JD,062,612,27-Jan-2007 10:51:14 PM,27-Jan-2007 2:51:14 PM,33.81732,-121.84150,080.0 070.0,080.0,070.0,490.000,494.103,5.6550,5.6559,34.1422,34.1409,34.1390,34.1391,0.66501,0.78,0.80,0.0241,,,1.7593,41.15,39.683,26.9227,26.9201,0.3979,90.5308,6.1620e+00,9.9990e+03,,,,,,,
CalCOFI,0701JD,062,612,27-Jan-2007 10:51:15 PM,27-Jan-2007 2:51:15 PM,33.81732,-121.84150,080.0 070.0,080.0,070.0,489.000,493.093,5.6614,5.6623,34.1422,34.1409,34.1395,34.1396,0.66626,0.78,0.80,0.0244,,,1.7556,41.04,39.570,26.9219,26.9197,0.3981,90.5256,6.2391e+00,9.9990e+03,,,,,,,
CalCOFI,0701JD,062,612,27-Jan-2007 10:51:16 PM,27-Jan-2007 2:51:16 PM,33.81732,-121.84150,080.0 070.0,080.0,070.0,488.000,492.084,5.6661,5.6674,34.1426,34.1413,34.1393,34.1394,0.66711,0.78,0.80,0.0242,,,1.7676,41.40,39.938,26.9217,26.9189,0.3976,90.5385,5.7756e+00,9.9990e+03,,,,,,,
CalCOFI,0701JD,062,612,27-Jan-2007 10:51:17 PM,27-Jan-2007 2:51:17 PM,33.81732,-121.84150,080.0 070.0,080.0,070.0,487.000,491.074,5.6946,5.6966,34.1437,34.1424,34.1407,34.1408,0.66935,0.78,0.81,0.0246,,,1.8019,42.40,40.992,26.9191,26.9164,0.3979,90.5305,6.0021e+00,9.9990e+03,,,,,,,
CalCOFI,0701JD,062,612,27-Jan-2007 10:51:18 PM,27-Jan-2007 2:51:18 PM,33.81732,-121.84150,080.0 070.0,080.0,070.0,486.000,490.064,5.6958,5.6986,34.1430,34.1417,34.1403,34.1404,0.67238,0.79,0.81,0.0240,,,1.7614,41.21,39.748,26.9183,26.9158,0.3980,90.5286,6.4545e+00,9.9990e+03,,,,,,,
CalCOFI,0701JD,062,612,27-Jan-2007 10:51:19 PM,27-Jan-2007 2:51:19 PM,33.81732,-121.84150,080.0 070.0,080.0,070.0,485.000,489.055,5.7090,5.7102,34.1417,34.1404,34.1386,34.1387,0.67507,0.79,0.81,0.0241,,,1.7443,40.71,39.223,26.9157,26.9131,0.3977,90.5364,6.2612e+00,9.9990e+03,,,,,,,
CalCOFI,0701JD,062,612,27-Jan-2007 10:51:20 PM,27-Jan-2007 2:51:20 PM,33.81732,-121.84150,080.0 070.0,080.0,070.0,484.000,488.045,5.7240,5.7255,34.1415,34.1402,34.1385,34.1386,0.67727,0.79,0.82,0.0241,,,1.7920,42.11,40.688,26.9137,26.9112,0.3979,90.5301,6.1713e+00,9.9990e+03,,,,,,,
CalCOFI,0701JD,062,612,27-Jan-2007 10:51:21 PM,27-Jan-2007 2:51:21 PM,33.81732,-121.84150,080.0 070.0,080.0,070.0,483.000,487.036,5.7348,5.7359,34.1411,34.1398,34.1385,34.1386,0.68092,0.80,0.82,0.0240,,,1.7766,41.66,40.215,26.9121,26.9098,0.3978,90.5324,6.0906e+00,9.9990e+03,,,,,,,
CalCOFI,0701JD,062,612,27-Jan-2007 10:51:23 PM,27-Jan-2007 2:51:23 PM,33.81732,-121.84150,080.0 070.0,080.0,070.0,482.000,486.026,5.7368,5.7376,34.1405,34.1392,34.1381,34.1382,0.68333,0.80,0.82,0.0240,,,1.7516,40.93,39.447,26.9113,26.9094,0.3976,90.5371,6.3541e+00,9.9990e+03,,,,,,,
CalCOFI,0701JD,062,612,27-Jan-2007 10:51:24 PM,27-Jan-2007 2:51:24 PM,33.81732,-121.84150,080.0 070.0,080.0,070.0,481.000,485.017,5.7372,5.7379,34.1401,34.1388,34.1378,34.1379,0.68490,0.80,0.83,0.0244,,,1.7303,40.30,38.793,26.9110,26.9090,0.3977,90.5350,6.1187e+00,9.9990e+03,,,,,,,
CalCOFI,0701JD,062,612,27-Jan-2007 10:51:24 PM,27-Jan-2007 2:51:24 PM,33.81732,-121.84150,080.0 070.0,080.0,070.0,480.000,484.007,5.7375,5.7383,34.1396,34.1383,34.1373,34.1374,0.68819,0.80,0.83,0.0239,,,1.7302,40.30,38.790,26.9105,26.9086,0.3981,90.5255,5.8573e+00,9.9990e+03,,,,,,,
CalCOFI,0701JD,062,612,27-Jan-2007 10:51:25 PM,27-Jan-2007 2:51:25 PM,33.81732,-121.84150,080.0 070.0,080.0,070.0,479.000,482.998,5.7388,5.7395,34.1387,34.1374,34.1364,34.1365,0.68947,0.81,0.83,0.0241,,,1.7583,41.12,39.653,26.9096,26.9077,0.3979,90.5307,5.8606e+00,9.9990e+03,,,,,,,
CalCOFI,0701JD,062,612,27-Jan-2007 10:51:26 PM,27-Jan-2007 2:51:26 PM,33.81732,-121.84150,080.0 070.0,080.0,070.0,478.000,481.988,5.7399,5.7406,34.1381,34.1368,34.1358,34.1359,0.69289,0.81,0.84,0.0249,,,1.7659,41.35,39.886,26.9090,26.9071,0.3978,90.5334,6.2750e+00,9.9990e+03,,,,,,,
CalCOFI,0701JD,062,612,27-Jan-2007 10:51:27 PM,27-Jan-2007 2:51:27 PM,33.81732,-121.84150,080.0 070.0,080.0,070.0,477.000,480.979,5.7416,5.7424,34.1373,34.1360,34.1350,34.1351,0.69478,0.81,0.84,0.0243,,,1.7578,41.11,39.637,26.9082,26.9062,0.3979,90.5298,6.2399e+00,9.9990e+03,,,,,,,
CalCOFI,0701JD,062,612,27-Jan-2007 10:51:28 PM,27-Jan-2007 2:51:28 PM,33.81732,-121.84150,080.0 070.0,080.0,070.0,476.000,479.969,5.7422,5.7429,34.1371,34.1358,34.1347,34.1348,0.69724,0.82,0.84,0.0241,,,1.7583,41.12,39.653,26.9079,26.9059,0.3981,90.5267,6.2395e+00,9.9990e+03,,,,,,,
CalCOFI,0701JD,062,612,27-Jan-2007 10:51:29 PM,27-Jan-2007 2:51:29 PM,33.81732,-121.84150,080.0 070.0,080.0,070.0,475.000,478.960,5.7418,5.7426,34.1363,34.1350,34.1340,34.1341,0.70224,0.82,0.85,0.0240,,,1.7626,41.25,39.785,26.9073,26.9054,0.3976,90.5381,5.8315e+00,9.9990e+03,,,,,,,
CalCOFI,0701JD,062,612,27-Jan-2007 10:51:30 PM,27-Jan-2007 2:51:30 PM,33.81732,-121.84150,080.0 070.0,080.0,070.0,474.000,477.950,5.7412,5.7419,34.1352,34.1339,34.1330,34.1331,0.71052,0.83,0.86,0.0245,,,1.7815,41.80,40.365,26.9065,26.9047,0.3977,90.5355,6.3731e+00,9.9990e+03,,,,,,,
CalCOFI,0701JD,062,612,27-Jan-2007 10:51:31 PM,27-Jan-2007 2:51:31 PM,33.81732,-121.84150,080.0 070.0,080.0,070.0,473.000,476.941,5.7353,5.7359,34.1307,34.1294,34.1288,34.1289,0.72097,0.84,0.87,0.0243,,,1.7530,40.97,39.490,26.9036,26.9021,0.3978,90.5324,6.1975e+00,9.9990e+03,,,,,,,
CalCOFI,0701JD,062,612,27-Jan-2007 10:51:32 PM,27-Jan-2007 2:51:32 PM,33.81732,-121.84150,080.0 070.0,080.0,070.0,472.000,475.931,5.7280,5.7286,34.1256,34.1243,34.1235,34.1236,0.72858,0.85,0.88,0.0240,,,1.7341,40.41,38.909,26.9005,26.8988,0.3979,90.5318,5.7597e+00,9.9990e+03,,,,,,,
CalCOFI,0701JD,062,612,27-Jan-2007 10:51:33 PM,27-Jan-2007 2:51:33 PM,33.81732,-121.84150,080.0 070.0,080.0,070.0,471.000,474.922,5.7280,5.7288,34.1240,34.1227,34.1216,34.1217,0.73580,0.86,0.89,0.0243,,,1.7499,40.88,39.395,26.8992,26.8973,0.3977,90.5357,6.1937e+00,9.9990e+03,,,,,,,
CalCOFI,0701JD,062,612,27-Jan-2007 10:51:34 PM,27-Jan-2007 2:51:34 PM,33.81732,-121.84150,080.0 070.0,080.0,070.0,470.000,473.912,5.7284,5.7292,34.1236,34.1223,34.1213,34.1214,0.74335,0.87,0.90,0.0243,,,1.7673,41.39,39.929,26.8988,26.8970,0.3981,90.5268,6.1771e+00,9.9990e+03,,,,,,,
CalCOFI,0701JD,062,612,27-Jan-2007 10:51:35 PM,27-Jan-2007 2:51:35 PM,33.81732,-121.84150,080.0 070.0,080.0,070.0,469.000,472.903,5.7289,5.7296,34.1228,34.1215,34.1207,34.1208,0.74781,0.88,0.90,0.0238,,,1.7630,41.26,39.797,26.8982,26.8964,0.3981,90.5256,6.5919e+00,9.9990e+03,,,,,,,
CalCOFI,0701JD,062,612,27-Jan-2007 10:51:36 PM,27-Jan-2007 2:51:36 PM,33.81732,-121.84150,080.0 070.0,080.0,070.0,468.000,471.893,5.7301,5.7309,34.1222,34.1209,34.1198,34.1199,0.75302,0.88,0.91,0.0242,,,1.7617,41.22,39.757,26.8975,26.8955,0.3982,90.5237,6.3522e+00,9.9990e+03,,,,,,,
CalCOFI,0701JD,062,612,27-Jan-2007 10:51:37 PM,27-Jan-2007 2:51:37 PM,33.81732,-121.84150,080.0 070.0,080.0,070.0,467.000,470.884,5.7306,5.7315,34.1221,34.1208,34.1198,34.1199,0.75673,0.89,0.91,0.0241,,,1.7507,40.90,39.419,26.8973,26.8954,0.3977,90.5354,6.0494e+00,9.9990e+03,,,,,,,
CalCOFI,0701JD,062,612,27-Jan-2007 10:51:38 PM,27-Jan-2007 2:51:38 PM,33.81732,-121.84150,080.0 070.0,080.0,070.0,466.000,469.874,5.7317,5.7324,34.1221,34.1208,34.1198,34.1199,0.76141,0.89,0.92,0.0240,,,1.7590,41.14,39.674,26.8972,26.8953,0.3977,90.5349,6.0799e+00,9.9990e+03,,,,,,,
CalCOFI,0701JD,062,612,27-Jan-2007 10:51:39 PM,27-Jan-2007 2:51:39 PM,33.81732,-121.84150,080.0 070.0,080.0,070.0,465.000,468.865,5.7323,5.7329,34.1218,34.1205,34.1194,34.1195,0.76402,0.90,0.92,0.0242,,,1.7572,41.09,39.619,26.8969,26.8949,0.3976,90.5374,5.7580e+00,9.9990e+03,,,,,,,
CalCOFI,0701JD,062,612,27-Jan-2007 10:51:40 PM,27-Jan-2007 2:51:40 PM,33.81732,-121.84150,080.0 070.0,080.0,070.0,464.000,467.855,5.7385,5.7397,34.1213,34.1200,34.1186,34.1187,0.76871,0.90,0.93,0.0243,,,1.7571,41.09,39.616,26.8957,26.8934,0.3977,90.5346,5.9107e+00,9.9990e+03,,,,,,,
CalCOFI,0701JD,062,612,27-Jan-2007 10:51:41 PM,27-Jan-2007 2:51:41 PM,33.81732,-121.84150,080.0 070.0,080.0,070.0,463.000,466.846,5.7473,5.7488,34.1198,34.1185,34.1174,34.1175,0.77296,0.91,0.93,0.0243,,,1.7693,41.45,39.990,26.8935,26.8914,0.3982,90.5243,6.0289e+00,9.9990e+03,,,,,,,
CalCOFI,0701JD,062,612,27-Jan-2007 10:51:43 PM,27-Jan-2007 2:51:43 PM,33.81732,-121.84150,080.0 070.0,080.0,070.0,462.000,465.837,5.7473,5.7481,34.1198,34.1185,34.1175,34.1176,0.77662,0.91,0.94,0.0239,,,1.7627,41.25,39.788,26.8934,26.8915,0.3981,90.5266,6.0146e+00,9.9990e+03,,,,,,,
CalCOFI,0701JD,062,612,27-Jan-2007 10:51:44 PM,27-Jan-2007 2:51:44 PM,33.81732,-121.84150,080.0 070.0,080.0,070.0,461.000,464.827,5.7484,5.7495,34.1197,34.1184,34.1174,34.1175,0.78262,0.92,0.95,0.0240,,,1.7518,40.93,39.453,26.8932,26.8913,0.3980,90.5293,6.2414e+00,9.9990e+03,,,,,,,
CalCOFI,0701JD,062,612,27-Jan-2007 10:51:45 PM,27-Jan-2007 2:51:45 PM,33.81732,-121.84150,080.0 070.0,080.0,070.0,460.000,463.818,5.7501,5.7509,34.1185,34.1172,34.1167,34.1168,0.78950,0.93,0.95,0.0236,,,1.7582,41.12,39.650,26.8920,26.8905,0.3978,90.5334,6.3615e+00,9.9990e+03,,,,,,,
CalCOFI,0701JD,062,612,27-Jan-2007 10:51:45 PM,27-Jan-2007 2:51:45 PM,33.81732,-121.84150,080.0 070.0,080.0,070.0,459.000,462.808,5.7459,5.7465,34.1152,34.1139,34.1132,34.1133,0.79629,0.94,0.96,0.0243,,,1.7461,40.76,39.278,26.8899,26.8883,0.3977,90.5356,6.4009e+00,9.9990e+03,,,,,,,
CalCOFI,0701JD,062,612,27-Jan-2007 10:51:46 PM,27-Jan-2007 2:51:46 PM,33.81732,-121.84150,080.0 070.0,080.0,070.0,458.000,461.799,5.7453,5.7458,34.1128,34.1115,34.1109,34.1110,0.80324,0.95,0.97,0.0241,,,1.7445,40.72,39.229,26.8881,26.8866,0.3978,90.5338,6.2683e+00,9.9990e+03,,,,,,,
CalCOFI,0701JD,062,612,27-Jan-2007 10:51:47 PM,27-Jan-2007 2:51:47 PM,33.81732,-121.84150,080.0 070.0,080.0,070.0,457.000,460.789,5.7363,5.7363,34.1099,34.1086,34.1087,34.1088,0.81186,0.96,0.98,0.0243,,,1.7394,40.57,39.072,26.8869,26.8860,0.3983,90.5209,6.2395e+00,9.9990e+03,,,,,,,
CalCOFI,0701JD,062,612,27-Jan-2007 10:51:47 PM,27-Jan-2007 2:51:47 PM,33.81732,-121.84150,080.0 070.0,080.0,070.0,456.000,459.780,5.7240,5.7246,34.1071,34.1058,34.1054,34.1055,0.81984,0.97,0.99,0.0245,,,1.7550,41.03,39.551,26.8862,26.8847,0.3982,90.5228,6.1877e+00,9.9990e+03,,,,,,,
CalCOFI,0701JD,062,612,27-Jan-2007 10:51:48 PM,27-Jan-2007 2:51:48 PM,33.81732,-121.84150,080.0 070.0,080.0,070.0,455.000,458.771,5.7132,5.7139,34.1044,34.1031,34.1026,34.1027,0.82894,0.98,1.00,0.0244,,,1.7572,41.09,39.619,26.8853,26.8838,0.3980,90.5285,6.3138e+00,9.9990e+03,,,,,,,
CalCOFI,0701JD,062,612,27-Jan-2007 10:51:49 PM,27-Jan-2007 2:51:49 PM,33.81732,-121.84150,080.0 070.0,080.0,070.0,454.000,457.761,5.7086,5.7103,34.1033,34.1020,34.1012,34.1013,0.83902,0.99,1.01,0.0243,,,1.7288,40.26,38.747,26.8850,26.8832,0.3975,90.5403,6.4905e+00,9.9990e+03,,,,,,,
CalCOFI,0701JD,062,612,27-Jan-2007 10:51:51 PM,27-Jan-2007 2:51:51 PM,33.81732,-121.84150,080.0 070.0,080.0,070.0,453.000,456.752,5.7086,5.7090,34.1030,34.1017,34.1006,34.1007,0.84755,1.00,1.02,0.0239,,,1.7460,40.76,39.275,26.8848,26.8829,0.3981,90.5263,5.9056e+00,9.9990e+03,,,,,,,
CalCOFI,0701JD,062,612,27-Jan-2007 10:51:51 PM,27-Jan-2007 2:51:51 PM,33.81732,-121.84150,080.0 070.0,080.0,070.0,452.000,455.743,5.7075,5.7081,34.1023,34.1010,34.1000,34.1001,0.85294,1.01,1.03,0.0242,,,1.6959,39.29,37.736,26.8844,26.8824,0.3977,90.5346,6.2844e+00,9.9990e+03,,,,,,,
CalCOFI,0701JD,062,612,27-Jan-2007 10:51:53 PM,27-Jan-2007 2:51:53 PM,33.81732,-121.84150,080.0 070.0,080.0,070.0,451.000,454.733,5.7134,5.7143,34.1032,34.1019,34.1005,34.1006,0.85697,1.01,1.04,0.0239,,,1.7201,40.00,38.480,26.8843,26.8821,0.3978,90.5326,6.0932e+00,9.9990e+03,,,,,,,
CalCOFI,0701JD,062,612,27-Jan-2007 10:51:55 PM,27-Jan-2007 2:51:55 PM,33.81732,-121.84150,080.0 070.0,080.0,070.0,450.000,453.724,5.7190,5.7186,34.1043,34.1030,34.1014,34.1015,0.86177,1.02,1.04,0.0241,,,1.7648,41.31,39.852,26.8845,26.8823,0.3982,90.5236,6.4831e+00,9.9990e+03,,,,,,,
CalCOFI,0701JD,062,612,27-Jan-2007 10:51:56 PM,27-Jan-2007 2:51:56 PM,33.81732,-121.84150,080.0 070.0,080.0,070.0,449.000,452.714,5.7220,5.7253,34.1041,34.1028,34.1013,34.1014,0.86027,1.01,1.04,0.0240,,,1.7103,39.71,38.179,26.8840,26.8814,0.3976,90.5379,5.9084e+00,9.9990e+03,,,,,,,
CalCOFI,0701JD,062,612,27-Jan-2007 10:51:57 PM,27-Jan-2007 2:51:57 PM,33.81732,-121.84150,080.0 070.0,080.0,070.0,448.000,451.705,5.7690,5.7697,34.1091,34.1078,34.1036,34.1037,0.85905,1.01,1.04,0.0240,,,1.7187,39.96,38.437,26.8822,26.8777,0.3980,90.5294,6.1681e+00,9.9990e+03,,,,,,,
CalCOFI,0701JD,062,612,27-Jan-2007 10:51:57 PM,27-Jan-2007 2:51:57 PM,33.81732,-121.84150,080.0 070.0,080.0,070.0,447.000,450.695,5.8215,5.8222,34.1090,34.1077,34.1053,34.1054,0.85884,1.01,1.04,0.0241,,,1.7234,40.10,38.581,26.8756,26.8726,0.3981,90.5270,6.4016e+00,9.9990e+03,,,,,,,
CalCOFI,0701JD,062,612,27-Jan-2007 10:51:58 PM,27-Jan-2007 2:51:58 PM,33.81732,-121.84150,080.0 070.0,080.0,070.0,446.000,449.686,5.8291,5.8298,34.1075,34.1062,34.1055,34.1056,0.86208,1.02,1.04,0.0241,,,1.7290,40.26,38.753,26.8735,26.8718,0.3981,90.5256,6.2166e+00,9.9990e+03,,,,,,,
CalCOFI,0701JD,062,612,27-Jan-2007 10:51:59 PM,27-Jan-2007 2:51:59 PM,33.81732,-121.84150,080.0 070.0,080.0,070.0,445.000,448.677,5.8262,5.8265,34.1054,34.1041,34.1034,34.1035,0.86563,1.02,1.05,0.0237,,,1.7299,40.29,38.781,26.8722,26.8706,0.3979,90.5303,6.4892e+00,9.9990e+03,,,,,,,
CalCOFI,0701JD,062,612,27-Jan-2007 10:52:00 PM,27-Jan-2007 2:52:00 PM,33.81732,-121.84150,080.0 070.0,080.0,070.0,444.000,447.668,5.8249,5.8257,34.1038,34.1025,34.1018,34.1019,0.86979,1.03,1.05,0.0241,,,1.7193,39.98,38.455,26.8711,26.8694,0.3985,90.5176,5.8520e+00,9.9990e+03,,,,,,,
CalCOFI,0701JD,062,612,27-Jan-2007 10:52:01 PM,27-Jan-2007 2:52:01 PM,33.81732,-121.84150,080.0 070.0,080.0,070.0,443.000,446.658,5.8257,5.8265,34.1033,34.1020,34.1013,34.1014,0.87376,1.03,1.06,0.0237,,,1.7228,40.08,38.562,26.8706,26.8689,0.3981,90.5257,6.0486e+00,9.9990e+03,,,,,,,
CalCOFI,0701JD,062,612,27-Jan-2007 10:52:02 PM,27-Jan-2007 2:52:02 PM,33.81732,-121.84150,080.0 070.0,080.0,070.0,442.000,445.649,5.8281,5.8288,34.1023,34.1010,34.1000,34.1001,0.87788,1.04,1.06,0.0243,,,1.7382,40.53,39.035,26.8694,26.8676,0.3981,90.5256,5.8480e+00,9.9990e+03,,,,,,,
CalCOFI,0701JD,062,612,27-Jan-2007 10:52:03 PM,27-Jan-2007 2:52:03 PM,33.81732,-121.84150,080.0 070.0,080.0,070.0,441.000,444.640,5.8315,5.8320,34.1015,34.1002,34.0995,34.0996,0.88412,1.04,1.07,0.0241,,,1.7469,40.79,39.303,26.8684,26.8667,0.3979,90.5298,6.0222e+00,9.9990e+03,,,,,,,
CalCOFI,0701JD,062,612,27-Jan-2007 10:52:04 PM,27-Jan-2007 2:52:04 PM,33.81732,-121.84150,080.0 070.0,080.0,070.0,440.000,443.630,5.8422,5.8388,34.1022,34.1009,34.0992,34.0993,0.88948,1.05,1.08,0.0242,,,1.6889,39.09,37.521,26.8677,26.8657,0.3981,90.5266,5.9190e+00,9.9990e+03,,,,,,,
CalCOFI,0701JD,062,612,27-Jan-2007 10:52:05 PM,27-Jan-2007 2:52:05 PM,33.81732,-9.990e-29,080.0 070.0,080.0,070.0,439.000,442.621,5.8567,5.8573,34.1025,34.1012,34.0997,34.0998,0.89229,1.05,1.08,0.0240,,,1.6894,39.10,37.537,26.8660,26.8638,0.3979,90.5317,6.2359e+00,9.9990e+03,,,,,,,
CalCOFI,0701JD,062,612,27-Jan-2007 10:52:06 PM,27-Jan-2007 2:52:06 PM,33.81732,-9.990e-29,080.0 070.0,080.0,070.0,438.000,441.612,5.8622,5.8629,34.1020,34.1007,34.1000,34.1001,0.89533,1.06,1.08,0.0239,,,1.7146,39.84,38.311,26.8650,26.8633,0.3980,90.5279,5.6149e+00,9.9990e+03,,,,,,,
CalCOFI,0701JD,062,612,27-Jan-2007 10:52:07 PM,27-Jan-2007 2:52:07 PM,33.81732,-121.84134,080.0 070.0,080.0,070.0,437.000,440.602,5.8631,5.8648,34.1026,34.1013,34.1003,34.1004,0.89823,1.06,1.09,0.0242,,,1.7211,40.03,38.510,26.8654,26.8633,0.3983,90.5204,6.3193e+00,9.9990e+03,,,,,,,
CalCOFI,0701JD,062,612,27-Jan-2007 10:52:13 PM,27-Jan-2007 2:52:13 PM,33.81732,-121.84134,080.0 070.0,080.0,070.0,436.000,439.593,5.8651,5.8653,34.1035,34.1022,34.1014,34.1015,0.89539,1.06,1.08,0.0239,,,1.7191,39.97,38.449,26.8658,26.8641,0.3984,90.5181,6.1009e+00,9.9990e+03,436,5.86 ,34.100, 1.06,,,38.8
CalCOFI,0701JD,062,612,27-Jan-2007 10:53:27 PM,27-Jan-2007 2:53:27 PM,33.81732,-121.84113,080.0 070.0,080.0,070.0,435.000,438.584,5.8751,5.8709,34.1033,34.1020,34.1013,34.1014,0.90656,1.07,1.10,0.0243,,,1.7220,40.06,38.538,26.8643,26.8633,0.3985,90.5161,6.4046e+00,9.9990e+03,,,,,,,
CalCOFI,0701JD,062,612,27-Jan-2007 10:54:04 PM,27-Jan-2007 2:54:04 PM,33.81732,-121.84100,080.0 070.0,080.0,070.0,434.000,437.574,5.8531,5.8537,34.1004,34.0991,34.0985,34.0986,0.91023,1.08,1.10,0.0239,,,1.7154,39.86,38.335,26.8648,26.8632,0.3991,90.5033,6.6738e+00,9.9990e+03,,,,,,,
CalCOFI,0701JD,062,612,27-Jan-2007 10:54:05 PM,27-Jan-2007 2:54:05 PM,33.81732,-121.84100,080.0 070.0,080.0,070.0,433.000,436.565,5.8597,5.8605,34.1007,34.0994,34.0989,34.0990,0.91067,1.08,1.10,0.0236,,,1.7184,39.95,38.427,26.8642,26.8627,0.3989,90.5074,6.3429e+00,9.9990e+03,,,,,,,
CalCOFI,0701JD,062,612,27-Jan-2007 10:54:06 PM,27-Jan-2007 2:54:06 PM,33.81732,-121.84100,080.0 070.0,080.0,070.0,432.000,435.556,5.8691,5.8710,34.1024,34.1011,34.1003,34.1004,0.90944,1.07,1.10,0.0240,,,1.7206,40.02,38.495,26.8644,26.8625,0.3982,90.5224,6.6373e+00,9.9990e+03,,,,,,,